Weather History for Meridian, MS

Change the Weather History Date:

Friday, December 28, 2012

  Actual Average Record
Temperature  
Mean Temperature 43 °F 45 °F  
Max Temperature 50 °F 57 °F 76 °F (1946)
Min Temperature 36 °F 34 °F 10 °F (1925)
Degree Days  
Heating Degree Days 22 20  
Month to date heating degree days 348 498  
Since 1 July heating degree days 875 948  
Cooling Degree Days 0 0  
Month to date cooling degree days 0 0  
Year to date cooling degree days 2177 2029  
Moisture  
Dew Point 42 °F    
Average Humidity 85    
Maximum Humidity 100    
Minimum Humidity 70    
Precipitation  
Precipitation 1.56 in 0.14 in 4.37 in (1915)
Month to date precipitation 9.08 4.64  
Year to date precipitation 62.75 55.74  
Sea Level Pressure  
Sea Level Pressure 29.90 in    
Wind  
Wind Speed 5 mph (East)    
Max Wind Speed 20 mph    
Max Gust Speed 30 mph    
Visibility 6 miles    
Events Rain    
T = Trace of Precipitation, MM = Missing Value Source: NWS Daily Summary

Daily Weather History Graph

Daily Weather History Graph

Search for Another Location

Airport:

Trip Planner

Search our weather history database for the weather conditions in past years. The results will help you decide how hot, cold, wet, or windy it might be!

Date:

Astronomy

Dec. 28, 2012 Rise Set
Actual Time 6:55 AM CST 4:58 PM CST
Civil Twilight 6:28 AM CST 5:25 PM CST
Nautical Twilight 5:57 AM CST 5:56 PM CST
Astronomical Twilight 5:27 AM CST 6:26 PM CST
Moon 5:31 PM CST (12/28) 6:52 AM CST (12/28)
Length of Visible Light 10h 57m
Length of Day
10h 02m
Full, 100% of the Moon is Illuminated
Dec 28
Full
Jan 4
Last Quarter
Jan 11
New
Jan 18
First Quarter
Jan 26
Full

Hourly Weather History & Observations

Time (CST) Temp. Windchill Dew Point Humidity Pressure Visibility Wind Dir Wind Speed Gust Speed Precip Events Conditions
12:58 AM 36.0 °F 32.1 °F 30.9 °F 82% 30.06 in 10.0 mi SE 4.6 mph - N/A   Partly Cloudy
1:58 AM 36.0 °F - 32.0 °F 86% 30.07 in 10.0 mi Calm Calm - N/A   Overcast
2:58 AM 37.4 °F - 32.0 °F 81% 30.05 in 10.0 mi Calm Calm - N/A   Overcast
3:58 AM 37.9 °F 35.5 °F 33.1 °F 83% 30.02 in 10.0 mi SE 3.5 mph - N/A   Overcast
4:58 AM 39.0 °F 36.8 °F 32.0 °F 76% 30.02 in 10.0 mi SE 3.5 mph - N/A   Overcast
5:58 AM 37.9 °F - 32.0 °F 79% 30.01 in 10.0 mi Calm Calm - N/A   Overcast
6:58 AM 37.4 °F 34.9 °F 33.8 °F 87% 30.01 in 10.0 mi SSE 3.5 mph - N/A   Overcast
7:58 AM 42.1 °F 37.1 °F 34.0 °F 73% 30.00 in 10.0 mi SSE 8.1 mph - N/A   Mostly Cloudy
8:58 AM 45.0 °F 41.8 °F 36.0 °F 71% 30.01 in 10.0 mi ENE 5.8 mph - N/A   Overcast
9:58 AM 46.0 °F 42.5 °F 37.0 °F 71% 30.01 in 10.0 mi East 6.9 mph - N/A   Overcast
10:58 AM 46.9 °F - 41.0 °F 80% 29.98 in 6.0 mi ESE 5.8 mph - 0.00 in Rain Light Rain
11:58 AM 46.0 °F 43.9 °F 43.0 °F 89% 29.93 in 5.0 mi ENE 4.6 mph - 0.06 in Rain Rain
12:35 PM 46.4 °F 45.2 °F 44.6 °F 93% 29.92 in 4.0 mi NE 3.5 mph - 0.06 in Rain Rain
12:56 PM 46.4 °F 43.5 °F 44.6 °F 93% 29.90 in 2.5 mi ENE 5.8 mph - 0.16 in Rain Heavy Rain
12:58 PM 46.0 °F 43.1 °F 44.1 °F 93% 29.90 in 2.5 mi East 5.8 mph - 0.17 in Rain Heavy Rain
1:08 PM 44.6 °F 42.2 °F 44.6 °F 100% 29.89 in 3.0 mi East 4.6 mph - 0.04 in Rain Heavy Rain
1:23 PM 44.6 °F 43.1 °F 44.6 °F 100% 29.88 in 3.0 mi Variable 3.5 mph - 0.09 in Rain Rain
1:30 PM 44.6 °F 42.2 °F 44.6 °F 100% 29.86 in 2.5 mi East 4.6 mph - 0.12 in Rain Heavy Rain
1:44 PM 44.6 °F - 44.6 °F 100% 29.86 in 3.0 mi Calm Calm - 0.16 in Rain Rain
1:51 PM 44.6 °F 43.1 °F 44.6 °F 100% 29.87 in 3.0 mi East 3.5 mph - 0.19 in Rain Rain
1:58 PM 46.0 °F 43.9 °F 44.1 °F 93% 29.87 in 3.0 mi NNE 4.6 mph - 0.21 in Rain Rain
2:10 PM 44.6 °F 42.2 °F 44.6 °F 100% 29.87 in 2.5 mi ENE 4.6 mph - 0.03 in Rain Rain
2:40 PM 44.6 °F 43.1 °F 44.6 °F 100% 29.87 in 1.5 mi NE 3.5 mph - 0.20 in Rain Heavy Rain
2:58 PM 45.0 °F 41.2 °F 44.1 °F 97% 29.85 in 1.2 mi East 6.9 mph - 0.33 in Rain Heavy Rain
3:58 PM 46.4 °F 42.9 °F 46.4 °F 100% 29.83 in 3.0 mi ESE 6.9 mph - N/A Rain Rain
4:07 PM 46.4 °F 42.4 °F 46.4 °F 100% 29.81 in 4.0 mi ESE 8.1 mph - 0.02 in Rain Rain
4:27 PM 48.2 °F - 46.4 °F 93% 29.82 in 4.0 mi Variable 5.8 mph - 0.07 in Rain Rain
4:37 PM 46.4 °F 44.3 °F 46.4 °F 100% 29.80 in 4.0 mi ENE 4.6 mph - 0.09 in Rain Rain
4:58 PM 46.9 °F - 46.9 °F 100% 29.81 in 8.0 mi Calm Calm - 0.10 in Rain Light Rain
5:23 PM 48.2 °F - 48.2 °F 100% 29.77 in 6.0 mi ESE 8.1 mph - 0.02 in Rain Rain
5:39 PM 48.2 °F - 48.2 °F 100% 29.78 in 8.0 mi ESE 9.2 mph - 0.05 in Rain Light Rain
5:58 PM 48.9 °F - 46.9 °F 93% 29.78 in 7.0 mi SE 11.5 mph 18.4 mph 0.07 in Rain Rain
6:58 PM 48.9 °F - 48.0 °F 97% 29.79 in 4.0 mi SE 3.5 mph - 0.09 in Rain Rain
7:58 PM 48.0 °F - 46.9 °F 96% 29.77 in 9.0 mi Calm Calm - 0.09 in Rain Light Rain
8:58 PM 48.0 °F - 48.0 °F 100% 29.81 in 7.0 mi West 4.6 mph - 0.00 in Rain Light Rain
9:39 PM 48.2 °F - 48.2 °F 100% 29.83 in 2.5 mi Calm Calm - 0.01 in   Overcast
9:46 PM 48.2 °F - 48.2 °F 100% 29.84 in 4.0 mi Calm Calm - 0.01 in   Overcast
9:58 PM 48.9 °F - 48.0 °F 97% 29.84 in 4.0 mi Calm Calm - 0.01 in   Overcast
10:58 PM 46.9 °F - 45.0 °F 93% 29.89 in 7.0 mi WNW 15.0 mph 24.2 mph N/A   Overcast
11:46 PM 44.6 °F 38.4 °F 41.0 °F 87% 29.91 in 10.0 mi NW 12.7 mph 21.9 mph N/A   Overcast
11:58 PM 43.0 °F 36.4 °F 41.0 °F 93% 29.91 in 10.0 mi NW 12.7 mph 18.4 mph N/A   Overcast